Hourly Data Report for February 18, 2021

TORONTO CITY
ONTARIO
Current Station Operator: ECCC - MSC

43°40'00.000" N
79°24'00.000" W
112.50 m
6158355
71508
XTO

Download Data

Hourly Data (February 2021)
Hourly Data Report for February 18, 2021
TIME
LST
Temp Definition
°C
Dew Point Definition
°C
Rel Hum Definition
%
Precip. Amount Definition
mm

Wind Dir Definition
10's deg

Wind Spd Definition
km/h
Visibility Definition
km
Stn Press Definition
kPa
Hmdx Definition


Wind Chill Definition


Weather Definition


00:00 -5.3 -13.1 54 0.0       101.69     LegendNANA
01:00 -5.2 -13.3 53 0.0       101.75     LegendNANA
02:00 -5.7 -13.2 55 0.0       101.76     LegendNANA
03:00 -6.1 -12.9 59 0.0       101.71     LegendNANA
04:00 -5.8 -12.4 59 0.0       101.71     LegendNANA
05:00 -5.2 -12.1 58 0.0       101.70     LegendNANA
06:00 -5.2 -12.6 56 0.0       101.64     LegendNANA
07:00 -5.4 -12.8 56 0.0       101.59     LegendNANA
08:00 -4.9 -12.5 55 0.0       101.56     LegendNANA
09:00 -4.4 -11.7 57 0.0       101.50     LegendNANA
10:00 -3.6 -9.4 64 0.0       101.45     LegendNANA
11:00 -3.6 -9.3 64 0.0       101.44     LegendNANA
12:00 -3.3 -9.4 63 0.0       101.40     LegendNANA
13:00 -3.2 -8.8 65 0.0       101.36     LegendNANA
14:00 -3.9 -6.0 85 0.3       101.33     LegendNANA
15:00 -3.1 -5.4 84 0.7       101.30     LegendNANA
16:00 -2.8 -5.8 80 0.2       101.29     LegendNANA
17:00 -2.7 -6.6 75 0.0       101.22     LegendNANA
18:00 -2.9 -5.7 81 0.1       101.17     LegendNANA
19:00 -3.8 -6.1 84 0.5       101.21     LegendNANA
20:00 -4.3 -6.3 86 0.7       101.18     LegendNANA
21:00 -4.8 -7.0 85 0.5       101.16     LegendNANA
22:00 -5.0 -7.2 84 0.3       101.05     LegendNANA
23:00 -5.1 -7.7 82 0.1       101.03     LegendNANA

Notes on Data Quality.

Legend

  • E = Estimated
  • M = Missing
  • NA = Not Available*
  • [empty] = Indicates an unobserved value
Date modified: